Regional Weather Roundup
Issued by NWS Northern Indiana

Home | Current Version | Previous Version | Graphics & Text | Print | Product List | Glossary On
Versions: 1 2 3 4 5 6 7 8 9 10 11 12 13 14 15 16 17 18 19 20 21 22 23 24 25 26 27 28 29 30 31 32 33 34 35 36 37 38 39 40 41 42 43 44 45 46 47 48 49 50
000
ASUS43 KIWX 270010
RWRIWX

KIWX WEATHER ROUNDUP
NATIONAL WEATHER SERVICE NORTHERN INDIANA
800 PM EDT SUN APR 26 2015

NOTE: "FAIR" INDICATES FEW OR NO CLOUDS BELOW 12,000 FEET WITH NO
SIGNIFICANT WEATHER AND/OR OBSTRUCTIONS TO VISIBILITY.

* THESE STATIONS ARE NOT UNDER NWS QUALITY CONTROL. THEY ALSO MAY NOT
  REPORT WEATHER SUCH AS PRECIPITATION OR FOG.

INZ001>027-270100-
NORTHERN INDIANA

CITY           SKY/WX    TMP DP  RH WIND       PRES   REMARKS
GARY*          CLEAR     46  27  46 N20       30.01S
VALPARAISO     CLEAR     45  26  47 N10G23    29.99S
6HR MIN TEMP:  45; 6HR MAX TEMP:  52;

MICHIGAN CITY* CLEAR     43  25  49 N10       29.99F
LAPORTE*       CLEAR     47  29  49 N13G21    29.98S
6HR MIN TEMP:  47; 6HR MAX TEMP:  54;

KNOX*          CLEAR     46   7  19 N18       29.96R
SOUTH BEND     CLEAR     49  24  37 N14       29.96S
6HR MIN TEMP:  49; 6HR MAX TEMP:  57;

GOSHEN         CLEAR     52  31  44 NW12      29.92R
6HR MIN TEMP:  52; 6HR MAX TEMP:  58;

MONTICELLO*    CLEAR     50  33  50 N15G21    29.94S
6HR MIN TEMP:  50; 6HR MAX TEMP:  58;

LOGANSPORT*    CLEAR     52  30  43 N13G20    29.94R
ROCHESTER*     CLEAR     54  32  43 N15G21    29.93S
WARSAW*        CLEAR     52  32  46 NW10G18   29.92R
ANGOLA*        CLEAR     55  41  58 E8        29.90S
FORT WAYNE     PTCLDY    53  32  44 N8        29.90S
6HR MIN TEMP:  53; 6HR MAX TEMP:  59;

HUNTINGTON*    PTCLDY    54  31  40 N5        29.90S
6HR MIN TEMP:  53; 6HR MAX TEMP:  58;

PERU/GRISSOM   PTCLDY    53  35  49 N13       29.91R
6HR MIN TEMP:  53; 6HR MAX TEMP:  58;

MARION*        PTCLDY    54  31  41 N8        29.91S
6HR MIN TEMP:  29; 6HR MAX TEMP:  59;


$$
INZ028>050-270100-
CENTRAL INDIANA

CITY           SKY/WX    TMP DP  RH WIND       PRES   REMARKS
LAFAYETTE      CLEAR     51  31  46 N14G23    29.95R
6HR MIN TEMP:  51; 6HR MAX TEMP:  57;

KOKOMO*        MOCLDY    55  36  47 N16       29.91S
6HR MIN TEMP:  54; 6HR MAX TEMP:  57;

MUNCIE*        PTCLDY    53  35  50 N9        29.90R
6HR MIN TEMP:  52; 6HR MAX TEMP:  58;

INDIANAPOLIS   PTCLDY    54  32  43 N8        29.90R
6HR MIN TEMP:  54; 6HR MAX TEMP:  58;


$$
MIZ043>046-050>051-056>058-064>065-071>073-077>080-270100-
SOUTHWEST LOWER MICHIGAN

CITY           SKY/WX    TMP DP  RH WIND       PRES   REMARKS
BATTLE CREEK   CLOUDY    56  31  38 NW16      29.90S
6HR MIN TEMP:  54; 6HR MAX TEMP:  59;

BENTON HARBOR  CLEAR     43  29  57 N9G17     29.97S
6HR MIN TEMP:  42; 6HR MAX TEMP:  47;

COLDWATER*     CLOUDY    54  27  36 NE6       29.89F
6HR MIN TEMP:  53; 6HR MAX TEMP:  57;

HILLSDALE*     CLOUDY    54  28  36 N7        29.89S
HOLLAND        CLEAR     52  28  39 NW10      29.95S
6HR MIN TEMP:  52; 6HR MAX TEMP:  57;

GRAND RAPIDS   MOCLDY    55  27  34 N17G28    29.91S
6HR MIN TEMP:  55; 6HR MAX TEMP:  61;

KALAMAZOO      CLEAR     54  29  38 NW12      29.92S
6HR MIN TEMP:  54; 6HR MAX TEMP:  60;

STURGIS*       MOCLDY    54  30  40 CALM      29.90R
THREE RIVERS*  FAIR      53  29  40 NW14      29.92R

$$
OHZ001>008-015>018-024>025-270100-
NORTHWEST OHIO

CITY           SKY/WX    TMP DP  RH WIND       PRES   REMARKS
WAUSEON*       CLOUDY    55  28  35 NE10      29.89S
DEFIANCE       PTCLDY    56  28  34 N13       29.90R
6HR MIN TEMP:  56; 6HR MAX TEMP:  61;

FINDLAY        MOCLDY    54  30  40 NE9       29.87S
6HR MIN TEMP:  54; 6HR MAX TEMP:  59;

TOLEDO EXPRESS CLOUDY    55  28  35 N16       29.89R
6HR MIN TEMP:  55; 6HR MAX TEMP:  60;

TOLEDO METCALF CLOUDY    53  30  41 NE7       29.90R
6HR MIN TEMP:  53; 6HR MAX TEMP:  59;

LIMA           CLOUDY    54  33  45 NE10      29.87S
6HR MIN TEMP:  52; 6HR MAX TEMP:  56;


$$
AND FOR LAKE MICHIGAN COASTAL AND OPEN LAKE BUOY OBSERVATIONS

STATION/POSITION TEMP    WIND        PRES    VSBY  WAVE
                 AIR SEA DIR/SP/G                  HT/PER
                 (F)     (DEG/KT/KT) (MB)    (MI)  (FT/S)
CALUMET HARBOR    45     350/  9/ 14   N/A
MICHIGAN CITY     42      20/ 13/ 15   N/A
BURNS HARBOR      44      20/ 15/ 18 1016.3S
SAINT JOSEPH      44     350/ 10/ 15 1015.2F
MICHIGAN CITY     42 45   20/ 14/ 19   N/A           4/ 4

$$
&&



USA.gov is the U.S. government's official web portal to all federal, state and local government web resources and services.